• In Uzbekistan
  • List of Countries
  • For 7 days
  • Water Temperature
  • Satellite Maps
  • Weather Map
  • Weather Widgets
  • user-avatar
    Login

    Hourly Weather Novaya Ulyanovka

    Today, 18 November, Sunday

    Time Temperature Precipitation Wind Pressure Humidity
    00:00 -4°C° 0 mm 4 mps 752 mmHg 28%
    01:00 -4°C° 0 mm 4 mps 751 mmHg 28%
    02:00 -4°C° 0 mm 4 mps 751 mmHg 28%
    03:00 -4°C° 0 mm 4 mps 750 mmHg 30%
    04:00 -4°C° 0 mm 4 mps 749 mmHg 29%
    05:00 -4°C° 0 mm 4 mps 749 mmHg 29%
    06:00 -4°C° 0 mm 4 mps 749 mmHg 28%
    07:00 -4°C° 0 mm 4 mps 748 mmHg 28%
    08:00 -4°C° 0 mm 4 mps 748 mmHg 27%
    09:00 -4°C° 0 mm 4 mps 748 mmHg 27%
    10:00 -3°C° 0 mm 4 mps 748 mmHg 26%
    11:00 -2°C° 0 mm 4 mps 748 mmHg 26%
    12:00 -1°C° 0 mm 4 mps 748 mmHg 25%
    13:00 -1°C° 0 mm 3 mps 748 mmHg 27%
    14:00 -1°C° 0 mm 3 mps 748 mmHg 28%
    15:00 -1°C° 0 mm 3 mps 748 mmHg 30%
    16:00 -1°C° 0 mm 2 mps 748 mmHg 32%
    17:00 -2°C° 0 mm 2 mps 748 mmHg 34%
    18:00 -3°C° 0 mm 2 mps 748 mmHg 36%
    19:00 -3°C° 0 mm 2 mps 748 mmHg 37%
    20:00 -3°C° 0 mm 2 mps 749 mmHg 38%
    21:00 -3°C° 0 mm 2 mps 749 mmHg 39%
    22:00 -3°C° 0 mm 2 mps 749 mmHg 40%
    23:00 -3°C° 0 mm 2 mps 749 mmHg 41%

    Tomorrow, 19 November, Monday

    Time Temperature Precipitation Wind Pressure Humidity
    00:00 -3°C° 0 mm 2 mps 749 mmHg 43%
    01:00 -3°C° 0 mm 2 mps 749 mmHg 45%
    02:00 -3°C° 0 mm 2 mps 750 mmHg 47%
    03:00 -2°C° 0 mm 1 mps 750 mmHg 49%
    04:00 -2°C° 0 mm 1 mps 750 mmHg 52%
    05:00 -2°C° 0 mm 1 mps 750 mmHg 54%
    06:00 -2°C° 0 mm 1 mps 750 mmHg 57%
    07:00 -1°C° 0 mm 1 mps 751 mmHg 59%
    08:00 -1°C° 0 mm 1 mps 751 mmHg 60%
    09:00 -1°C° 0 mm 1 mps 751 mmHg 62%
    10:00 -1°C° 0 mm 1 mps 751 mmHg 63%
    11:00 0°C° 0 mm 1 mps 752 mmHg 64%
    12:00 0°C° 0 mm 0 mps 752 mmHg 64%
    13:00 +1°C° 0 mm 1 mps 752 mmHg 67%
    14:00 +1°C° 0 mm 1 mps 752 mmHg 70%
    15:00 +1°C° 0 mm 1 mps 752 mmHg 72%
    16:00 0°C° 0 mm 1 mps 752 mmHg 77%
    17:00 0°C° 0 mm 1 mps 752 mmHg 81%
    18:00 -3°C° 0 mm 2 mps 752 mmHg 85%
    19:00 -1°C° 0 mm 1 mps 752 mmHg 86%
    20:00 -1°C° 0 mm 1 mps 752 mmHg 88%
    21:00 -1°C° 0 mm 1 mps 752 mmHg 89%
    22:00 -3°C° 0 mm 2 mps 752 mmHg 90%
    23:00 -3°C° 0 mm 2 mps 752 mmHg 90%

    Day after tomorrow, 20 November, Tuesday

    Time Temperature Precipitation Wind Pressure Humidity
    00:00 -3°C° 0 mm 2 mps 752 mmHg 91%
    01:00 -2°C° 0 mm 2 mps 752 mmHg 91%
    02:00 -2°C° 0 mm 2 mps 752 mmHg 91%
    03:00 -2°C° 0 mm 2 mps 752 mmHg 91%
    04:00 -3°C° 0 mm 2 mps 752 mmHg 92%
    05:00 -3°C° 0 mm 2 mps 751 mmHg 93%
    06:00 -3°C° 0 mm 2 mps 751 mmHg 94%
    07:00 -3°C° 0 mm 2 mps 751 mmHg 94%
    08:00 -3°C° 0 mm 2 mps 751 mmHg 94%
    09:00 -2°C° 0 mm 2 mps 751 mmHg 94%
    10:00 -2°C° 0 mm 2 mps 751 mmHg 90%
    11:00 -1°C° 0 mm 2 mps 751 mmHg 86%
    12:00 -1°C° 0 mm 2 mps 751 mmHg 82%
    13:00 -1°C° 0 mm 2 mps 750 mmHg 82%
    14:00 -1°C° 0 mm 2 mps 750 mmHg 81%
    15:00 -1°C° 0 mm 2 mps 750 mmHg 81%
    16:00 -1°C° 0 mm 2 mps 750 mmHg 83%
    17:00 -2°C° 0 mm 2 mps 750 mmHg 84%
    18:00 -2°C° 0 mm 2 mps 750 mmHg 86%
    19:00 -2°C° 0 mm 2 mps 750 mmHg 86%
    20:00 -2°C° 0 mm 2 mps 750 mmHg 86%
    21:00 -2°C° 0 mm 2 mps 750 mmHg 87%
    22:00 -3°C° 0 mm 2 mps 749 mmHg 88%
    23:00 -3°C° 0 mm 2 mps 749 mmHg 89%

    21 November, Wednesday

    Time Temperature Precipitation Wind Pressure Humidity
    00:00 -3°C° 0 mm 2 mps 749 mmHg 90%
    01:00 -3°C° 0 mm 2 mps 749 mmHg 90%
    02:00 -3°C° 0 mm 2 mps 749 mmHg 91%
    03:00 -4°C° 0 mm 2 mps 749 mmHg 92%
    04:00 -4°C° 0 mm 2 mps 749 mmHg 92%
    05:00 -4°C° 0 mm 2 mps 749 mmHg 91%
    06:00 -4°C° 0 mm 2 mps 749 mmHg 91%
    07:00 -4°C° 0 mm 2 mps 749 mmHg 89%
    08:00 -4°C° 0 mm 2 mps 749 mmHg 88%
    09:00 -5°C° 0 mm 3 mps 749 mmHg 86%
    10:00 -4°C° 0 mm 3 mps 749 mmHg 81%
    11:00 -4°C° 0 mm 3 mps 749 mmHg 76%
    12:00 -2°C° 0 mm 3 mps 748 mmHg 71%
    13:00 -3°C° 0 mm 4 mps 748 mmHg 71%
    14:00 -3°C° 0 mm 4 mps 748 mmHg 72%
    15:00 -3°C° 0 mm 4 mps 748 mmHg 72%
    16:00 -4°C° 0 mm 3 mps 748 mmHg 75%
    17:00 -4°C° 0 mm 3 mps 748 mmHg 79%
    18:00 -5°C° 0 mm 3 mps 748 mmHg 82%
    19:00 -4°C° 0 mm 3 mps 748 mmHg 81%
    20:00 -4°C° 0 mm 4 mps 748 mmHg 80%
    21:00 -4°C° 0 mm 4 mps 748 mmHg 79%
    22:00 -4°C° 0 mm 3 mps 748 mmHg 80%
    23:00 -4°C° 0 mm 3 mps 748 mmHg 81%

    22 November, Thursday

    Time Temperature Precipitation Wind Pressure Humidity
    00:00 -4°C° 0 mm 3 mps 747 mmHg 82%
    01:00 -4°C° 0 mm 3 mps 747 mmHg 82%
    02:00 -4°C° 0 mm 3 mps 747 mmHg 82%
    03:00 -4°C° 0 mm 3 mps 747 mmHg 82%
    04:00 -4°C° 0 mm 3 mps 747 mmHg 80%
    05:00 -5°C° 0 mm 3 mps 747 mmHg 78%
    06:00 -5°C° 0 mm 4 mps 747 mmHg 76%
    07:00 -5°C° 0 mm 4 mps 746 mmHg 76%
    08:00 -5°C° 0 mm 4 mps 746 mmHg 76%
    09:00 -5°C° 0 mm 4 mps 746 mmHg 76%
    10:00 -6°C° 0 mm 5 mps 746 mmHg 74%
    11:00 -5°C° 0 mm 5 mps 745 mmHg 71%
    12:00 -5°C° 0 mm 6 mps 745 mmHg 69%
    13:00 -4°C° 0 mm 6 mps 745 mmHg 69%
    14:00 -4°C° 0 mm 6 mps 744 mmHg 70%
    15:00 -4°C° 0 mm 7 mps 744 mmHg 70%
    16:00 -4°C° 0 mm 7 mps 744 mmHg 71%
    17:00 -6°C° 0 mm 7 mps 744 mmHg 72%
    18:00 -6°C° 0 mm 7 mps 744 mmHg 74%
    19:00 -5°C° 0 mm 6 mps 745 mmHg 75%
    20:00 -4°C° 0 mm 6 mps 745 mmHg 76%
    21:00 -4°C° 0 mm 6 mps 745 mmHg 77%
    22:00 -4°C° 0 mm 5 mps 746 mmHg 77%
    23:00 -4°C° 0 mm 5 mps 746 mmHg 77%

    23 November, Friday

    Time Temperature Precipitation Wind Pressure Humidity
    00:00 -4°C° 0 mm 5 mps 746 mmHg 77%
    01:00 -4°C° 0 mm 4 mps 747 mmHg 77%
    02:00 -5°C° 0 mm 4 mps 747 mmHg 76%
    03:00 -5°C° 0 mm 3 mps 748 mmHg 76%
    04:00 -5°C° 0 mm 3 mps 748 mmHg 73%
    05:00 -6°C° 0 mm 3 mps 749 mmHg 71%
    06:00 -6°C° 0 mm 3 mps 749 mmHg 68%
    07:00 -6°C° 0 mm 3 mps 750 mmHg 67%
    08:00 -6°C° 0 mm 3 mps 750 mmHg 66%
    09:00 -6°C° 0 mm 3 mps 751 mmHg 64%
    10:00 -5°C° 0 mm 3 mps 751 mmHg 63%
    11:00 -5°C° 0 mm 3 mps 751 mmHg 62%
    12:00 -4°C° 0 mm 3 mps 751 mmHg 61%
    13:00 -4°C° 0 mm 3 mps 751 mmHg 66%
    14:00 -4°C° 0 mm 3 mps 751 mmHg 71%
    15:00 -4°C° 0 mm 3 mps 751 mmHg 76%
    16:00 -4°C° 0 mm 3 mps 751 mmHg 80%
    17:00 -4°C° 0 mm 4 mps 751 mmHg 83%
    18:00 -5°C° 0 mm 4 mps 751 mmHg 87%
    19:00 -4°C° 0 mm 4 mps 750 mmHg 87%
    20:00 -4°C° 0 mm 4 mps 750 mmHg 87%
    21:00 -5°C° 0 mm 5 mps 750 mmHg 87%
    22:00 -5°C° 0 mm 5 mps 750 mmHg 87%
    23:00 -5°C° 0 mm 5 mps 749 mmHg 87%
    Show more